Palmer, AK

6:10 AM AKDT on September 19, 2017 (GMT -0800)
Palmer Municipal

Weather History for PAAQ - January, 2014

Change the Weather History Date:

Monday, January 6, 2014

  Actual Average Record
Temperature  
Mean Temperature 34 °F -  
Max Temperature 39 °F 19 °F 41 °F (2002)
Min Temperature 27 °F 2 °F -36 °F (1975)
Degree Days  
Heating Degree Days 32    
Moisture  
Dew Point 22 °F    
Average Humidity 64    
Maximum Humidity 69    
Minimum Humidity 59    
Precipitation  
Precipitation 0.00 in - - ()
Sea Level Pressure  
Sea Level Pressure 29.69 in    
Wind  
Wind Speed 13 mph (North)    
Max Wind Speed 16 mph    
Max Gust Speed 20 mph    
Visibility 10 miles    
Events      
Averages and records for this station are not official NWS values.
T = Trace of Precipitation, MM = Missing Value Source: NWS Daily Summary

Daily Weather History Graph

Daily Weather History Graph

Search for Another Location

Airport or City:

Trip Planner

Search our weather history database for the weather conditions in past years. The results will help you decide how hot, cold, wet, or windy it might be!

Date:

Astronomy

Jan. 06, 2014 Rise Set
Actual Time 10:09 AM AKST 3:55 PM AKST
Civil Twilight 9:09 AM AKST 4:55 PM AKST
Nautical Twilight 8:09 AM AKST 5:55 PM AKST
Astronomical Twilight 7:16 AM AKST 6:48 PM AKST
Moon 11:28 AM AKST (1/6) No Moon Set
Length of Visible Light 7h 46m
Length of Day
5h 45m
Waxing Crescent, 36% of the Moon is Illuminated
Jan 6
Waxing Crescent
Jan 7
First Quarter
Jan 15
Full
Jan 23
Last Quarter
Jan 30
New

Hourly Weather History & Observations

Time (AKST) Temp. Windchill Dew Point Humidity Pressure Visibility Wind Dir Wind Speed Gust Speed Precip Events Conditions
12:53 AM 30.9 °F 20.2 °F 19.9 °F 64% 29.72 in 10.0 mi North 15.0 mph - N/A   Overcast
1:53 AM 30.9 °F 20.2 °F 19.9 °F 64% 29.71 in 10.0 mi North 15.0 mph - N/A   Overcast
2:53 AM 32.0 °F 22.5 °F 21.0 °F 64% 29.70 in 10.0 mi North 12.7 mph - N/A   Overcast
3:53 AM 34.0 °F 23.8 °F 21.0 °F 59% 29.68 in 10.0 mi North 16.1 mph - N/A   Overcast
4:53 AM 34.0 °F 26.0 °F 21.0 °F 59% 29.68 in 10.0 mi North 10.4 mph - N/A   Scattered Clouds
5:53 AM 34.0 °F 26.0 °F 21.9 °F 61% 29.68 in 10.0 mi North 10.4 mph - N/A   Partly Cloudy
6:53 AM 35.1 °F 25.9 °F 21.9 °F 59% 29.67 in 10.0 mi North 13.8 mph - N/A   Mostly Cloudy
7:53 AM 35.1 °F 27.9 °F 21.9 °F 59% 29.68 in 10.0 mi NNW 9.2 mph - N/A   Overcast
8:53 AM 35.1 °F 25.9 °F 23.0 °F 61% 29.68 in 10.0 mi NNW 13.8 mph 17.3 mph N/A   Overcast
9:53 AM 37.9 °F - 27.0 °F 65% 29.70 in 10.0 mi Calm Calm - N/A   Overcast
10:53 AM 35.1 °F 26.4 °F 24.1 °F 64% 29.70 in 10.0 mi North 12.7 mph - N/A   Overcast
11:53 AM 39.0 °F 34.0 °F 28.9 °F 67% 29.70 in 10.0 mi NE 6.9 mph - N/A   Overcast
12:53 PM 34.0 °F 26.0 °F 23.0 °F 64% 29.72 in 10.0 mi NNW 10.4 mph - N/A   Overcast
1:53 PM 35.1 °F 26.4 °F 23.0 °F 61% 29.71 in 10.0 mi North 12.7 mph - N/A   Overcast
2:53 PM 35.1 °F 26.9 °F 24.1 °F 64% 29.70 in 10.0 mi North 11.5 mph - N/A   Mostly Cloudy
3:53 PM 33.1 °F 24.4 °F 21.9 °F 64% 29.71 in 10.0 mi North 11.5 mph - N/A   Scattered Clouds
4:53 PM 32.0 °F 22.5 °F 21.0 °F 64% 29.70 in 10.0 mi North 12.7 mph - N/A   Mostly Cloudy
5:53 PM 32.0 °F 23.0 °F 21.9 °F 66% 29.70 in 10.0 mi North 11.5 mph - N/A   Mostly Cloudy
6:53 PM 30.9 °F 20.7 °F 21.0 °F 67% 29.68 in 10.0 mi North 13.8 mph - N/A   Overcast
7:53 PM 28.9 °F 18.6 °F 19.9 °F 69% 29.69 in 10.0 mi North 12.7 mph - N/A   Mostly Cloudy
8:53 PM 28.9 °F 19.2 °F 19.0 °F 67% 29.68 in 10.0 mi North 11.5 mph - N/A   Partly Cloudy
9:53 PM 30.0 °F 19.5 °F 19.0 °F 64% 29.68 in 10.0 mi North 13.8 mph - N/A   Clear
10:53 PM 28.9 °F 19.2 °F 18.0 °F 64% 29.68 in 10.0 mi North 11.5 mph 19.6 mph N/A   Clear
11:53 PM 27.0 °F 15.2 °F 18.0 °F 69% 29.68 in 10.0 mi North 15.0 mph - N/A   Clear